Time,TemperatureF,DewpointF,PressureIn,WindDirection,WindDirectionDegrees,WindSpeedMPH,WindSpeedGustMPH,Humidity,HourlyPrecipIn,Conditions,Clouds,dailyrainin,SoftwareType,DateUTC
2013-01-26 00:00:00,21.9,18.9,30.08,West,265,2.0,3.0,88,0.00,,,0.00,Wunderground v.1.15,2013-01-26 05:00:00,
2013-01-26 00:05:00,22.0,19.0,30.08,WSW,254,2.0,3.0,88,0.00,,,0.00,Wunderground v.1.15,2013-01-26 05:05:00,
2013-01-26 00:10:00,22.1,19.1,30.08,NW,315,2.0,2.0,88,0.00,,,0.00,Wunderground v.1.15,2013-01-26 05:10:00,
2013-01-26 00:15:00,22.2,19.2,30.08,West,261,2.0,2.0,88,0.00,,,0.00,Wunderground v.1.15,2013-01-26 05:15:00,
2013-01-26 00:20:00,22.3,19.0,30.08,NW,313,2.0,2.0,87,0.00,,,0.00,Wunderground v.1.15,2013-01-26 05:20:00,
2013-01-26 00:24:00,22.4,19.1,30.08,West,272,2.0,2.0,87,0.00,,,0.00,Wunderground v.1.15,2013-01-26 05:24:00,
2013-01-26 00:29:00,22.6,19.3,30.08,WNW,297,1.0,2.0,87,0.00,,,0.00,Wunderground v.1.15,2013-01-26 05:29:00,
2013-01-26 00:35:00,22.6,19.3,30.08,West,268,2.0,2.0,87,0.00,,,0.00,Wunderground v.1.15,2013-01-26 05:35:00,
2013-01-26 00:40:00,22.6,19.3,30.08,West,266,2.0,3.0,87,0.00,,,0.00,Wunderground v.1.15,2013-01-26 05:40:00,
2013-01-26 00:45:00,22.7,19.4,30.08,WNW,289,3.0,3.0,87,0.00,,,0.00,Wunderground v.1.15,2013-01-26 05:45:00,
2013-01-26 00:50:00,22.7,19.4,30.08,WSW,258,2.0,2.0,87,0.00,,,0.00,Wunderground v.1.15,2013-01-26 05:50:00,
2013-01-26 00:55:00,22.9,19.6,30.08,WSW,255,2.0,2.0,87,0.00,,,0.00,Wunderground v.1.15,2013-01-26 05:55:00,
2013-01-26 01:00:00,22.9,19.6,30.08,West,261,2.0,3.0,87,0.00,,,0.00,Wunderground v.1.15,2013-01-26 06:00:00,
2013-01-26 01:05:00,23.0,19.7,30.08,NW,311,2.0,3.0,87,0.00,,,0.00,Wunderground v.1.15,2013-01-26 06:05:00,
2013-01-26 01:15:00,23.2,19.6,30.08,NW,316,2.0,2.0,86,0.00,,,0.00,Wunderground v.1.15,2013-01-26 06:15:00,
2013-01-26 01:20:00,23.3,19.7,30.08,WNW,284,2.0,2.0,86,0.00,,,0.00,Wunderground v.1.15,2013-01-26 06:20:00,
2013-01-26 01:25:00,23.2,19.6,30.08,West,271,2.0,2.0,86,0.00,,,0.00,Wunderground v.1.15,2013-01-26 06:25:00,
2013-01-26 01:30:00,23.3,19.7,30.08,West,276,2.0,2.0,86,0.00,,,0.00,Wunderground v.1.15,2013-01-26 06:30:00,
2013-01-26 01:35:00,23.3,19.5,30.08,West,274,2.0,2.0,85,0.00,,,0.00,Wunderground v.1.15,2013-01-26 06:35:00,
2013-01-26 01:40:00,23.4,19.6,30.08,WNW,297,2.0,2.0,85,0.00,,,0.00,Wunderground v.1.15,2013-01-26 06:40:00,
2013-01-26 01:50:00,23.4,19.6,30.08,West,272,1.0,2.0,85,0.00,,,0.00,Wunderground v.1.15,2013-01-26 06:50:00,
2013-01-26 01:55:00,23.5,19.7,30.08,WNW,298,2.0,2.0,85,0.00,,,0.00,Wunderground v.1.15,2013-01-26 06:55:00,
2013-01-26 02:00:00,23.6,19.8,30.08,WNW,298,2.0,2.0,85,0.00,,,0.00,Wunderground v.1.15,2013-01-26 07:00:00,
2013-01-26 02:05:00,23.6,19.8,30.08,West,272,2.0,2.0,85,0.00,,,0.00,Wunderground v.1.15,2013-01-26 07:05:00,
2013-01-26 02:10:00,23.7,21.7,30.08,West,272,1.0,2.0,92,0.00,,,0.00,Wunderground v.1.15,2013-01-26 07:10:00,
2013-01-26 02:15:00,23.8,19.9,30.08,NW,305,1.0,4.0,85,0.00,,,0.00,Wunderground v.1.15,2013-01-26 07:15:00,
2013-01-26 02:20:00,23.8,19.9,30.08,WNW,294,1.0,1.0,85,0.00,,,0.00,Wunderground v.1.15,2013-01-26 07:20:00,
2013-01-26 02:30:00,24.0,20.1,30.08,NNW,339,1.0,2.0,85,0.00,,,0.00,Wunderground v.1.15,2013-01-26 07:30:00,
2013-01-26 02:35:00,24.0,20.1,30.08,WNW,292,2.0,2.0,85,0.00,,,0.00,Wunderground v.1.15,2013-01-26 07:35:00,
2013-01-26 02:40:00,24.0,20.1,30.08,NW,308,2.0,2.0,85,0.00,,,0.00,Wunderground v.1.15,2013-01-26 07:40:00,
2013-01-26 02:45:00,24.2,20.3,30.09,NW,314,2.0,4.0,85,0.00,,,0.00,Wunderground v.1.15,2013-01-26 07:45:00,
2013-01-26 02:50:00,24.2,20.3,30.09,West,269,2.0,2.0,85,0.00,,,0.00,Wunderground v.1.15,2013-01-26 07:50:00,
2013-01-26 02:55:00,24.2,20.3,30.09,WSW,254,2.0,2.0,85,0.00,,,0.00,Wunderground v.1.15,2013-01-26 07:55:00,
2013-01-26 03:05:00,24.2,20.1,30.09,West,269,2.0,3.0,84,0.00,,,0.00,Wunderground v.1.15,2013-01-26 08:05:00,
2013-01-26 03:10:00,24.3,20.2,30.09,WNW,302,2.0,2.0,84,0.00,,,0.00,Wunderground v.1.15,2013-01-26 08:10:00,
2013-01-26 03:15:00,24.3,20.2,30.09,WNW,303,1.0,2.0,84,0.00,,,0.00,Wunderground v.1.15,2013-01-26 08:15:00,
2013-01-26 03:20:00,24.2,20.1,30.09,NW,317,2.0,4.0,84,0.00,,,0.00,Wunderground v.1.15,2013-01-26 08:20:00,
2013-01-26 03:25:00,24.2,20.1,30.10,NNW,330,2.0,5.0,84,0.00,,,0.00,Wunderground v.1.15,2013-01-26 08:25:00,
2013-01-26 03:30:00,24.2,20.1,30.10,WNW,283,2.0,2.0,84,0.00,,,0.00,Wunderground v.1.15,2013-01-26 08:30:00,
2013-01-26 03:35:00,24.3,20.2,30.10,NW,304,2.0,4.0,84,0.00,,,0.00,Wunderground v.1.15,2013-01-26 08:35:00,
2013-01-26 03:45:00,24.3,20.2,30.10,NW,310,1.0,2.0,84,0.00,,,0.00,Wunderground v.1.15,2013-01-26 08:45:00,
2013-01-26 03:50:00,24.3,20.2,30.10,West,278,2.0,2.0,84,0.00,,,0.00,Wunderground v.1.15,2013-01-26 08:50:00,
2013-01-26 03:55:00,24.4,20.3,30.10,NW,319,2.0,2.0,84,0.00,,,0.00,Wunderground v.1.15,2013-01-26 08:55:00,
2013-01-26 04:00:00,24.4,20.3,30.11,NW,318,1.0,4.0,84,0.00,,,0.00,Wunderground v.1.15,2013-01-26 09:00:00,
2013-01-26 04:05:00,24.4,20.3,30.11,WNW,282,1.0,4.0,84,0.00,,,0.00,Wunderground v.1.15,2013-01-26 09:05:00,
2013-01-26 04:10:00,24.5,20.4,30.11,WNW,303,1.0,1.0,84,0.00,,,0.00,Wunderground v.1.15,2013-01-26 09:10:00,
2013-01-26 04:20:00,24.5,20.4,30.11,WNW,302,1.0,1.0,84,0.00,,,0.00,Wunderground v.1.15,2013-01-26 09:20:00,
2013-01-26 04:25:00,24.5,20.4,30.12,West,269,1.0,1.0,84,0.00,,,0.00,Wunderground v.1.15,2013-01-26 09:25:00,
2013-01-26 04:30:00,24.6,20.2,30.12,NW,307,1.0,1.0,83,0.00,,,0.00,Wunderground v.1.15,2013-01-26 09:30:00,
2013-01-26 04:35:00,24.6,20.2,30.12,WNW,302,1.0,1.0,83,0.00,,,0.00,Wunderground v.1.15,2013-01-26 09:35:00,
2013-01-26 04:40:00,24.6,20.2,30.12,WNW,302,1.0,1.0,83,0.00,,,0.00,Wunderground v.1.15,2013-01-26 09:40:00,
2013-01-26 04:45:00,24.6,20.2,30.12,West,276,1.0,2.0,83,0.00,,,0.00,Wunderground v.1.15,2013-01-26 09:45:00,
2013-01-26 04:55:00,24.7,20.3,30.13,NNW,332,2.0,2.0,83,0.00,,,0.00,Wunderground v.1.15,2013-01-26 09:55:00,
2013-01-26 05:00:00,24.7,20.3,30.13,NW,312,3.0,3.0,83,0.00,,,0.00,Wunderground v.1.15,2013-01-26 10:00:00,
2013-01-26 05:05:00,24.8,20.4,30.13,NW,321,2.0,4.0,83,0.00,,,0.00,Wunderground v.1.15,2013-01-26 10:05:00,
2013-01-26 05:10:00,25.0,20.6,30.13,North,359,3.0,5.0,83,0.00,,,0.00,Wunderground v.1.15,2013-01-26 10:10:00,
2013-01-26 05:15:00,25.1,20.4,30.13,NNW,345,4.0,5.0,82,0.00,,,0.00,Wunderground v.1.15,2013-01-26 10:15:00,
2013-01-26 05:20:00,25.1,20.4,30.13,North,5,4.0,4.0,82,0.00,,,0.00,Wunderground v.1.15,2013-01-26 10:20:00,
2013-01-26 05:25:00,25.1,20.4,30.14,NNW,348,3.0,4.0,82,0.00,,,0.00,Wunderground v.1.15,2013-01-26 10:25:00,
2013-01-26 05:35:00,25.2,20.2,30.14,NW,317,2.0,2.0,81,0.00,,,0.00,Wunderground v.1.15,2013-01-26 10:35:00,
2013-01-26 05:40:00,25.1,20.1,30.14,NNW,342,3.0,3.0,81,0.00,,,0.00,Wunderground v.1.15,2013-01-26 10:40:00,
2013-01-26 05:45:00,25.2,20.2,30.14,NNW,335,4.0,6.0,81,0.00,,,0.00,Wunderground v.1.15,2013-01-26 10:45:00,
2013-01-26 05:50:00,25.3,20.0,30.14,North,352,5.0,5.0,80,0.00,,,0.00,Wunderground v.1.15,2013-01-26 10:50:00,
2013-01-26 05:55:00,25.3,20.0,30.15,NW,323,4.0,5.0,80,0.00,,,0.00,Wunderground v.1.15,2013-01-26 10:55:00,
2013-01-26 06:00:00,25.4,20.1,30.15,NNW,332,4.0,4.0,80,0.00,,,0.00,Wunderground v.1.15,2013-01-26 11:00:00,
2013-01-26 06:10:00,25.4,20.1,30.15,North,1,4.0,7.0,80,0.00,,,0.00,Wunderground v.1.15,2013-01-26 11:10:00,
2013-01-26 06:15:00,25.5,20.2,30.16,North,357,4.0,7.0,80,0.00,,,0.00,Wunderground v.1.15,2013-01-26 11:15:00,
2013-01-26 06:20:00,25.5,20.2,30.16,NNW,330,3.0,4.0,80,0.00,,,0.00,Wunderground v.1.15,2013-01-26 11:20:00,
2013-01-26 06:25:00,25.5,19.9,30.16,NNW,334,3.0,4.0,79,0.00,,,0.00,Wunderground v.1.15,2013-01-26 11:25:00,
2013-01-26 06:30:00,25.5,19.9,30.16,NW,324,3.0,4.0,79,0.00,,,0.00,Wunderground v.1.15,2013-01-26 11:30:00,
2013-01-26 06:35:00,25.5,19.9,30.16,North,351,4.0,4.0,79,0.00,,,0.00,Wunderground v.1.15,2013-01-26 11:35:00,
2013-01-26 06:45:00,25.6,20.0,30.17,North,354,3.0,4.0,79,0.00,,,0.00,Wunderground v.1.15,2013-01-26 11:45:00,
2013-01-26 06:50:00,25.5,19.9,30.17,NNW,330,4.0,4.0,79,0.00,,,0.00,Wunderground v.1.15,2013-01-26 11:50:00,
2013-01-26 06:55:00,25.6,19.7,30.17,NNE,16,3.0,4.0,78,0.00,,,0.00,Wunderground v.1.15,2013-01-26 11:55:00,
2013-01-26 07:00:00,25.6,19.7,30.17,NNW,339,3.0,5.0,78,0.00,,,0.00,Wunderground v.1.15,2013-01-26 12:00:00,
2013-01-26 07:05:00,25.5,19.6,30.18,NNW,338,3.0,5.0,78,0.00,,,0.00,Wunderground v.1.15,2013-01-26 12:05:00,
2013-01-26 07:15:00,25.5,19.6,30.18,WNW,303,3.0,5.0,78,0.00,,,0.00,Wunderground v.1.15,2013-01-26 12:15:00,
2013-01-26 07:20:00,25.5,19.6,30.18,NNW,336,3.0,3.0,78,0.00,,,0.00,Wunderground v.1.15,2013-01-26 12:20:00,
2013-01-26 07:25:00,25.4,19.5,30.18,North,355,3.0,3.0,78,0.00,,,0.00,Wunderground v.1.15,2013-01-26 12:25:00,
2013-01-26 07:30:00,25.4,19.5,30.19,NNW,333,3.0,3.0,78,0.00,,,0.00,Wunderground v.1.15,2013-01-26 12:30:00,
2013-01-26 07:35:00,25.4,19.5,30.19,NNW,333,3.0,3.0,78,0.00,,,0.00,Wunderground v.1.15,2013-01-26 12:35:00,
2013-01-26 07:40:00,25.4,19.5,30.19,NW,324,2.0,2.0,78,0.00,,,0.00,Wunderground v.1.15,2013-01-26 12:40:00,
2013-01-26 07:45:00,25.4,19.5,30.19,NW,322,1.0,2.0,78,0.00,,,0.00,Wunderground v.1.15,2013-01-26 12:45:00,
2013-01-26 07:55:00,25.4,19.5,30.19,NNW,339,2.0,4.0,78,0.00,,,0.00,Wunderground v.1.15,2013-01-26 12:55:00,
2013-01-26 08:00:00,25.4,19.5,30.19,North,353,2.0,5.0,78,0.00,,,0.00,Wunderground v.1.15,2013-01-26 13:00:00,
2013-01-26 08:05:00,25.4,19.2,30.20,NNW,333,3.0,5.0,77,0.00,,,0.00,Wunderground v.1.15,2013-01-26 13:05:00,
2013-01-26 08:10:00,25.5,19.3,30.20,NW,322,3.0,3.0,77,0.00,,,0.00,Wunderground v.1.15,2013-01-26 13:10:00,
2013-01-26 08:15:00,25.5,19.3,30.19,North,357,3.0,3.0,77,0.00,,,0.00,Wunderground v.1.15,2013-01-26 13:15:00,
2013-01-26 08:25:00,25.5,19.3,30.19,NNW,334,2.0,7.0,77,0.00,,,0.00,Wunderground v.1.15,2013-01-26 13:25:00,
2013-01-26 08:30:00,25.6,19.4,30.20,North,1,3.0,4.0,77,0.00,,,0.00,Wunderground v.1.15,2013-01-26 13:30:00,
2013-01-26 08:35:00,25.7,19.5,30.20,NNW,339,3.0,4.0,77,0.00,,,0.00,Wunderground v.1.15,2013-01-26 13:35:00,
2013-01-26 08:40:00,25.7,19.2,30.20,NW,317,2.0,2.0,76,0.00,,,0.00,Wunderground v.1.15,2013-01-26 13:40:00,
2013-01-26 08:45:00,26.0,19.5,30.20,NW,317,2.0,2.0,76,0.00,,,0.00,Wunderground v.1.15,2013-01-26 13:45:00,
2013-01-26 08:50:00,26.4,19.9,30.20,NW,317,1.0,1.0,76,0.00,,,0.00,Wunderground v.1.15,2013-01-26 13:50:00,
2013-01-26 09:00:00,26.8,19.6,30.21,NNW,331,2.0,4.0,74,0.00,,,0.00,Wunderground v.1.15,2013-01-26 14:00:00,
2013-01-26 09:05:00,26.9,19.4,30.21,North,358,2.0,4.0,73,0.00,,,0.00,Wunderground v.1.15,2013-01-26 14:05:00,
2013-01-26 09:10:00,27.0,19.8,30.21,NNW,331,2.0,2.0,74,0.00,,,0.00,Wunderground v.1.15,2013-01-26 14:10:00,
2013-01-26 09:15:00,27.2,20.0,30.21,NNW,341,2.0,2.0,74,0.00,,,0.00,Wunderground v.1.15,2013-01-26 14:15:00,
2013-01-26 09:20:00,27.3,20.1,30.21,NNW,340,2.0,4.0,74,0.00,,,0.00,Wunderground v.1.15,2013-01-26 14:20:00,
2013-01-26 09:25:00,27.3,19.8,30.22,NNW,344,2.0,4.0,73,0.00,,,0.00,Wunderground v.1.15,2013-01-26 14:25:00,
2013-01-26 09:30:00,27.2,19.4,30.22,NNW,343,3.0,4.0,72,0.00,,,0.00,Wunderground v.1.15,2013-01-26 14:30:00,
2013-01-26 09:40:00,27.2,19.0,30.22,North,356,3.0,4.0,71,0.00,,,0.00,Wunderground v.1.15,2013-01-26 14:40:00,
2013-01-26 09:45:00,27.6,19.4,30.22,North,357,3.0,6.0,71,0.00,,,0.00,Wunderground v.1.15,2013-01-26 14:45:00,
2013-01-26 09:50:00,27.5,19.3,30.22,North,352,4.0,4.0,71,0.00,,,0.00,Wunderground v.1.15,2013-01-26 14:50:00,
2013-01-26 09:55:00,27.4,18.6,30.22,NNW,344,5.0,6.0,69,0.00,,,0.00,Wunderground v.1.15,2013-01-26 14:55:00,
2013-01-26 10:00:00,27.6,19.1,30.23,NNW,332,5.0,5.0,70,0.00,,,0.00,Wunderground v.1.15,2013-01-26 15:00:00,
2013-01-26 10:05:00,27.8,19.3,30.23,North,1,5.0,6.0,70,0.00,,,0.00,Wunderground v.1.15,2013-01-26 15:05:00,
2013-01-26 10:15:00,28.1,19.6,30.23,NW,326,5.0,5.0,70,0.00,,,0.00,Wunderground v.1.15,2013-01-26 15:15:00,
2013-01-26 10:20:00,28.3,19.8,30.23,NNW,342,4.0,4.0,70,0.00,,,0.00,Wunderground v.1.15,2013-01-26 15:20:00,
2013-01-26 10:25:00,28.3,19.4,30.23,North,349,4.0,6.0,69,0.00,,,0.00,Wunderground v.1.15,2013-01-26 15:25:00,
2013-01-26 10:30:00,28.3,19.4,30.24,NW,309,4.0,4.0,69,0.00,,,0.00,Wunderground v.1.15,2013-01-26 15:30:00,
2013-01-26 10:35:00,28.5,19.3,30.24,NNW,333,3.0,4.0,68,0.00,,,0.00,Wunderground v.1.15,2013-01-26 15:35:00,
2013-01-26 10:40:00,28.7,19.8,30.24,North,7,3.0,3.0,69,0.00,,,0.00,Wunderground v.1.15,2013-01-26 15:40:00,
2013-01-26 10:45:00,28.8,19.6,30.24,NNW,336,3.0,3.0,68,0.00,,,0.00,Wunderground v.1.15,2013-01-26 15:45:00,
2013-01-26 10:55:00,29.1,19.5,30.24,NNW,331,2.0,5.0,67,0.00,,,0.00,Wunderground v.1.15,2013-01-26 15:55:00,
2013-01-26 11:00:00,29.0,19.1,30.24,North,5,3.0,4.0,66,0.00,,,0.00,Wunderground v.1.15,2013-01-26 16:00:00,
2013-01-26 11:05:00,29.5,19.9,30.24,NNW,327,4.0,4.0,67,0.00,,,0.00,Wunderground v.1.15,2013-01-26 16:05:00,
2013-01-26 11:10:00,29.2,19.2,30.24,NW,324,3.0,3.0,66,0.00,,,0.00,Wunderground v.1.15,2013-01-26 16:10:00,
2013-01-26 11:15:00,29.4,19.8,30.24,NNE,26,3.0,4.0,67,0.00,,,0.00,Wunderground v.1.15,2013-01-26 16:15:00,
2013-01-26 11:20:00,29.4,19.8,30.24,NW,317,4.0,4.0,67,0.00,,,0.00,Wunderground v.1.15,2013-01-26 16:20:00,
2013-01-26 11:29:00,30.7,21.0,30.24,NNE,26,2.0,2.0,67,0.00,,,0.00,Wunderground v.1.15,2013-01-26 16:29:00,
2013-01-26 11:35:00,31.1,20.7,30.24,North,355,2.0,4.0,65,0.00,,,0.00,Wunderground v.1.15,2013-01-26 16:35:00,
2013-01-26 11:40:00,30.8,20.4,30.24,NW,324,3.0,3.0,65,0.00,,,0.00,Wunderground v.1.15,2013-01-26 16:40:00,
2013-01-26 11:45:00,31.4,21.3,30.24,North,358,3.0,4.0,66,0.00,,,0.00,Wunderground v.1.15,2013-01-26 16:45:00,
2013-01-26 11:50:00,31.6,21.2,30.23,NW,314,2.0,5.0,65,0.00,,,0.00,Wunderground v.1.15,2013-01-26 16:50:00,
2013-01-26 11:55:00,31.6,21.2,30.23,NW,311,4.0,5.0,65,0.00,,,0.00,Wunderground v.1.15,2013-01-26 16:55:00,
2013-01-26 12:05:00,31.7,20.5,30.23,NW,313,4.0,4.0,63,0.00,,,0.01,Wunderground v.1.15,2013-01-26 17:05:00,
2013-01-26 12:10:00,31.5,20.3,30.23,NW,317,4.0,4.0,63,0.00,,,0.01,Wunderground v.1.15,2013-01-26 17:10:00,
2013-01-26 12:15:00,32.2,21.7,30.22,NNW,328,3.0,4.0,65,0.00,,,0.01,Wunderground v.1.15,2013-01-26 17:15:00,
2013-01-26 12:20:00,31.8,21.0,30.22,NNW,329,3.0,5.0,64,0.00,,,0.01,Wunderground v.1.15,2013-01-26 17:20:00,
2013-01-26 12:25:00,31.6,20.8,30.22,NW,319,4.0,6.0,64,0.00,,,0.01,Wunderground v.1.15,2013-01-26 17:25:00,
2013-01-26 12:30:00,31.7,20.9,30.22,NW,317,4.0,4.0,64,0.00,,,0.01,Wunderground v.1.15,2013-01-26 17:30:00,
2013-01-26 12:40:00,32.1,20.9,30.22,NW,326,4.0,4.0,63,0.00,,,0.01,Wunderground v.1.15,2013-01-26 17:40:00,
2013-01-26 12:45:00,32.5,21.3,30.21,North,9,4.0,4.0,63,0.00,,,0.01,Wunderground v.1.15,2013-01-26 17:45:00,
2013-01-26 12:50:00,32.1,21.3,30.21,NNW,346,3.0,8.0,64,0.00,,,0.01,Wunderground v.1.15,2013-01-26 17:50:00,
2013-01-26 12:55:00,31.5,21.1,30.21,WNW,283,3.0,8.0,65,0.00,,,0.01,Wunderground v.1.15,2013-01-26 17:55:00,
2013-01-26 13:00:00,31.6,20.8,30.20,NW,321,3.0,4.0,64,0.00,,,0.01,Wunderground v.1.15,2013-01-26 18:00:00,
2013-01-26 13:10:00,32.5,21.3,30.20,NNW,345,3.0,3.0,63,0.00,,,0.01,Wunderground v.1.15,2013-01-26 18:10:00,
2013-01-26 13:15:00,32.6,21.8,30.20,NNW,331,2.0,3.0,64,0.00,,,0.01,Wunderground v.1.15,2013-01-26 18:15:00,
2013-01-26 13:20:00,32.1,20.9,30.20,NNW,344,2.0,2.0,63,0.00,,,0.01,Wunderground v.1.15,2013-01-26 18:20:00,
2013-01-26 13:25:00,32.2,21.0,30.20,NNE,28,3.0,7.0,63,0.00,,,0.01,Wunderground v.1.15,2013-01-26 18:25:00,
2013-01-26 13:30:00,32.7,21.5,30.20,WNW,292,4.0,6.0,63,0.00,,,0.01,Wunderground v.1.15,2013-01-26 18:30:00,
2013-01-26 13:35:00,33.0,21.4,30.20,NNW,335,4.0,6.0,62,0.00,,,0.01,Wunderground v.1.15,2013-01-26 18:35:00,
2013-01-26 13:40:00,33.4,21.0,30.19,NNW,338,4.0,4.0,60,0.00,,,0.01,Wunderground v.1.15,2013-01-26 18:40:00,
2013-01-26 13:49:00,33.8,21.4,30.20,WNW,294,3.0,4.0,60,0.00,,,0.01,Wunderground v.1.15,2013-01-26 18:49:00,
2013-01-26 13:55:00,34.0,22.0,30.20,NNW,338,3.0,6.0,61,0.00,,,0.01,Wunderground v.1.15,2013-01-26 18:55:00,
2013-01-26 14:00:00,33.9,21.9,30.20,NNW,327,4.0,4.0,61,0.00,,,0.01,Wunderground v.1.15,2013-01-26 19:00:00,
2013-01-26 14:05:00,34.0,21.2,30.20,NNW,348,4.0,4.0,59,0.00,,,0.01,Wunderground v.1.15,2013-01-26 19:05:00,
2013-01-26 14:10:00,33.9,21.5,30.20,NNW,348,5.0,8.0,60,0.00,,,0.01,Wunderground v.1.15,2013-01-26 19:10:00,
2013-01-26 14:15:00,33.8,21.0,30.20,NW,324,5.0,8.0,59,0.00,,,0.01,Wunderground v.1.15,2013-01-26 19:15:00,
2013-01-26 14:24:00,34.4,22.3,30.21,North,359,5.0,8.0,61,0.00,,,0.01,Wunderground v.1.15,2013-01-26 19:24:00,
2013-01-26 14:30:00,34.4,21.9,30.21,North,5,4.0,7.0,60,0.00,,,0.01,Wunderground v.1.15,2013-01-26 19:30:00,
2013-01-26 14:35:00,34.1,21.3,30.21,NW,320,5.0,7.0,59,0.00,,,0.01,Wunderground v.1.15,2013-01-26 19:35:00,
2013-01-26 14:40:00,34.2,21.7,30.21,NW,321,5.0,5.0,60,0.00,,,0.01,Wunderground v.1.15,2013-01-26 19:40:00,
2013-01-26 14:45:00,33.9,21.1,30.22,North,359,5.0,5.0,59,0.00,,,0.01,Wunderground v.1.15,2013-01-26 19:45:00,
2013-01-26 14:50:00,33.9,21.1,30.22,NNW,336,6.0,6.0,59,0.00,,,0.01,Wunderground v.1.15,2013-01-26 19:50:00,
2013-01-26 14:55:00,33.5,21.1,30.22,NW,313,5.0,6.0,60,0.00,,,0.01,Wunderground v.1.15,2013-01-26 19:55:00,
2013-01-26 15:00:00,33.3,20.9,30.22,North,355,4.0,5.0,60,0.00,,,0.01,Wunderground v.1.15,2013-01-26 20:00:00,
2013-01-26 15:10:00,33.5,21.5,30.22,NNW,337,4.0,8.0,61,0.00,,,0.01,Wunderground v.1.15,2013-01-26 20:10:00,
2013-01-26 15:15:00,33.5,21.5,30.22,WNW,302,3.0,8.0,61,0.00,,,0.01,Wunderground v.1.15,2013-01-26 20:15:00,
2013-01-26 15:20:00,33.5,21.5,30.23,North,358,3.0,4.0,61,0.00,,,0.01,Wunderground v.1.15,2013-01-26 20:20:00,
2013-01-26 15:25:00,33.6,21.6,30.23,NW,324,3.0,4.0,61,0.00,,,0.01,Wunderground v.1.15,2013-01-26 20:25:00,
2013-01-26 15:34:00,33.9,21.5,30.23,North,353,2.0,4.0,60,0.00,,,0.01,Wunderground v.1.15,2013-01-26 20:34:00,
2013-01-26 15:40:00,33.9,21.5,30.23,North,354,2.0,4.0,60,0.00,,,0.01,Wunderground v.1.15,2013-01-26 20:40:00,
2013-01-26 15:45:00,33.8,21.0,30.23,NNW,338,3.0,8.0,59,0.00,,,0.01,Wunderground v.1.15,2013-01-26 20:45:00,
2013-01-26 15:50:00,33.7,20.9,30.23,North,9,5.0,5.0,59,0.00,,,0.01,Wunderground v.1.15,2013-01-26 20:50:00,
2013-01-26 15:55:00,33.6,21.2,30.23,NNW,332,5.0,5.0,60,0.00,,,0.01,Wunderground v.1.15,2013-01-26 20:55:00,
2013-01-26 16:00:00,33.5,21.1,30.23,North,5,4.0,4.0,60,0.00,,,0.01,Wunderground v.1.15,2013-01-26 21:00:00,
2013-01-26 16:10:00,33.1,21.5,30.24,NW,316,3.0,3.0,62,0.00,,,0.01,Wunderground v.1.15,2013-01-26 21:10:00,
2013-01-26 16:15:00,32.9,21.3,30.24,North,353,3.0,5.0,62,0.00,,,0.01,Wunderground v.1.15,2013-01-26 21:15:00,
2013-01-26 16:20:00,32.9,21.3,30.24,WNW,303,4.0,4.0,62,0.00,,,0.01,Wunderground v.1.15,2013-01-26 21:20:00,
2013-01-26 16:25:00,32.8,21.2,30.25,West,279,4.0,4.0,62,0.00,,,0.01,Wunderground v.1.15,2013-01-26 21:25:00,
2013-01-26 16:30:00,32.8,21.2,30.25,NW,307,3.0,3.0,62,0.00,,,0.01,Wunderground v.1.15,2013-01-26 21:30:00,
2013-01-26 16:35:00,32.8,21.2,30.25,NW,324,3.0,3.0,62,0.00,,,0.01,Wunderground v.1.15,2013-01-26 21:35:00,
2013-01-26 16:44:00,32.7,21.1,30.25,North,351,3.0,6.0,62,0.00,,,0.01,Wunderground v.1.15,2013-01-26 21:44:00,
2013-01-26 16:50:00,32.7,21.1,30.25,NW,323,4.0,4.0,62,0.00,,,0.01,Wunderground v.1.15,2013-01-26 21:50:00,
2013-01-26 16:55:00,32.7,21.1,30.26,NW,324,4.0,6.0,62,0.00,,,0.01,Wunderground v.1.15,2013-01-26 21:55:00,
2013-01-26 17:00:00,32.7,21.1,30.26,NNW,337,4.0,4.0,62,0.00,,,0.01,Wunderground v.1.15,2013-01-26 22:00:00,
2013-01-26 17:05:00,32.6,21.4,30.26,NNE,21,3.0,7.0,63,0.00,,,0.01,Wunderground v.1.15,2013-01-26 22:05:00,
2013-01-26 17:10:00,32.5,20.9,30.26,North,359,3.0,4.0,62,0.00,,,0.01,Wunderground v.1.15,2013-01-26 22:10:00,
2013-01-26 17:19:00,32.4,21.2,30.27,NNW,328,3.0,3.0,63,0.00,,,0.01,Wunderground v.1.15,2013-01-26 22:19:00,
2013-01-26 17:25:00,32.3,21.1,30.27,WNW,299,3.0,4.0,63,0.00,,,0.01,Wunderground v.1.15,2013-01-26 22:25:00,
2013-01-26 17:30:00,32.2,21.0,30.27,NW,313,3.0,4.0,63,0.00,,,0.01,Wunderground v.1.15,2013-01-26 22:30:00,
2013-01-26 17:35:00,32.1,20.9,30.28,NW,324,3.0,4.0,63,0.00,,,0.01,Wunderground v.1.15,2013-01-26 22:35:00,
2013-01-26 17:40:00,32.0,21.2,30.28,NW,319,4.0,6.0,64,0.00,,,0.01,Wunderground v.1.15,2013-01-26 22:40:00,
2013-01-26 17:45:00,31.9,21.1,30.28,NNW,331,4.0,6.0,64,0.00,,,0.01,Wunderground v.1.15,2013-01-26 22:45:00,
2013-01-26 17:50:00,31.8,21.0,30.28,NNW,334,3.0,3.0,64,0.00,,,0.01,Wunderground v.1.15,2013-01-26 22:50:00,
2013-01-26 17:55:00,31.7,21.3,30.28,NNW,343,2.0,4.0,65,0.00,,,0.01,Wunderground v.1.15,2013-01-26 22:55:00,
2013-01-26 18:05:00,31.4,21.0,30.29,NNW,338,2.0,2.0,65,0.00,,,0.01,Wunderground v.1.15,2013-01-26 23:05:00,
2013-01-26 18:10:00,31.2,20.8,30.29,North,355,2.0,2.0,65,0.00,,,0.01,Wunderground v.1.15,2013-01-26 23:10:00,
2013-01-26 18:15:00,31.0,21.0,30.29,NNW,346,1.0,2.0,66,0.00,,,0.01,Wunderground v.1.15,2013-01-26 23:15:00,
2013-01-26 18:20:00,30.8,20.8,30.29,NNW,346,1.0,2.0,66,0.00,,,0.01,Wunderground v.1.15,2013-01-26 23:20:00,
2013-01-26 18:25:00,30.7,20.7,30.30,North,5,1.0,2.0,66,0.00,,,0.01,Wunderground v.1.15,2013-01-26 23:25:00,
2013-01-26 18:30:00,30.6,20.6,30.30,North,5,1.0,1.0,66,0.00,,,0.01,Wunderground v.1.15,2013-01-26 23:30:00,
2013-01-26 18:40:00,30.3,20.6,30.31,WNW,301,1.0,1.0,67,0.00,,,0.01,Wunderground v.1.15,2013-01-26 23:40:00,
2013-01-26 18:45:00,30.2,20.6,30.31,NW,306,1.0,2.0,67,0.00,,,0.01,Wunderground v.1.15,2013-01-26 23:45:00,
2013-01-26 18:50:00,30.1,20.8,30.31,NW,306,1.0,1.0,68,0.00,,,0.01,Wunderground v.1.15,2013-01-26 23:50:00,
2013-01-26 18:55:00,30.0,20.7,30.31,NW,308,1.0,1.0,68,0.00,,,0.01,Wunderground v.1.15,2013-01-26 23:55:00,
2013-01-26 19:00:00,29.8,20.5,30.31,NW,308,1.0,1.0,68,0.00,,,0.01,Wunderground v.1.15,2013-01-27 00:00:00,
2013-01-26 19:05:00,29.4,20.5,30.32,NW,308,0.0,1.0,69,0.00,,,0.01,Wunderground v.1.15,2013-01-27 00:05:00,
2013-01-26 19:10:00,29.1,20.5,30.32,NW,308,0.0,0.0,70,0.00,,,0.01,Wunderground v.1.15,2013-01-27 00:10:00,
2013-01-26 19:20:00,28.6,20.4,30.32,NW,309,0.0,1.0,71,0.00,,,0.01,Wunderground v.1.15,2013-01-27 00:20:00,
2013-01-26 19:25:00,28.6,20.4,30.32,NW,309,0.0,1.0,71,0.00,,,0.01,Wunderground v.1.15,2013-01-27 00:25:00,
2013-01-26 19:30:00,28.7,20.5,30.33,NW,309,1.0,2.0,71,0.00,,,0.01,Wunderground v.1.15,2013-01-27 00:30:00,
2013-01-26 19:35:00,28.7,20.5,30.33,NW,309,1.0,2.0,71,0.00,,,0.01,Wunderground v.1.15,2013-01-27 00:35:00,
2013-01-26 19:40:00,28.6,20.4,30.33,NW,309,1.0,1.0,71,0.00,,,0.01,Wunderground v.1.15,2013-01-27 00:40:00,
2013-01-26 19:50:00,28.6,20.7,30.33,NW,309,0.0,0.0,72,0.00,,,0.01,Wunderground v.1.15,2013-01-27 00:50:00,
2013-01-26 19:55:00,28.5,20.6,30.33,NW,309,1.0,2.0,72,0.00,,,0.01,Wunderground v.1.15,2013-01-27 00:55:00,
2013-01-26 20:00:00,28.4,20.5,30.33,NW,309,1.0,1.0,72,0.00,,,0.01,Wunderground v.1.15,2013-01-27 01:00:00,
2013-01-26 20:05:00,28.3,20.7,30.33,NW,309,1.0,1.0,73,0.00,,,0.01,Wunderground v.1.15,2013-01-27 01:05:00,
2013-01-26 20:10:00,28.2,20.7,30.34,NW,309,0.0,0.0,73,0.00,,,0.01,Wunderground v.1.15,2013-01-27 01:10:00,
2013-01-26 20:15:00,28.1,20.9,30.33,NW,321,0.0,2.0,74,0.00,,,0.01,Wunderground v.1.15,2013-01-27 01:15:00,
2013-01-26 20:25:00,27.9,20.7,30.34,NNW,346,1.0,2.0,74,0.00,,,0.01,Wunderground v.1.15,2013-01-27 01:25:00,
2013-01-26 20:30:00,27.7,20.5,30.34,NNW,346,0.0,0.0,74,0.00,,,0.01,Wunderground v.1.15,2013-01-27 01:30:00,
2013-01-26 20:35:00,27.4,20.5,30.35,NNW,346,0.0,0.0,75,0.00,,,0.01,Wunderground v.1.15,2013-01-27 01:35:00,
2013-01-26 20:40:00,27.2,20.3,30.35,NNW,346,0.0,0.0,75,0.00,,,0.01,Wunderground v.1.15,2013-01-27 01:40:00,
2013-01-26 20:45:00,27.0,20.4,30.35,NNW,346,0.0,0.0,76,0.00,,,0.01,Wunderground v.1.15,2013-01-27 01:45:00,
2013-01-26 20:50:00,26.9,20.3,30.35,NNW,346,0.0,0.0,76,0.00,,,0.01,Wunderground v.1.15,2013-01-27 01:50:00,
2013-01-26 20:55:00,26.7,20.1,30.35,NNW,346,0.0,0.0,76,0.00,,,0.01,Wunderground v.1.15,2013-01-27 01:55:00,
2013-01-26 21:05:00,26.2,20.3,30.36,NNW,346,0.0,0.0,78,0.00,,,0.01,Wunderground v.1.15,2013-01-27 02:05:00,
2013-01-26 21:10:00,26.1,20.2,30.36,NNW,346,0.0,0.0,78,0.00,,,0.00,Wunderground v.1.15,2013-01-27 02:10:00,
2013-01-26 21:15:00,25.8,19.9,30.36,NNW,346,0.0,0.0,78,0.00,,,0.00,Wunderground v.1.15,2013-01-27 02:15:00,
2013-01-26 21:20:00,25.5,19.9,30.37,NNW,346,0.0,0.0,79,0.00,,,0.00,Wunderground v.1.15,2013-01-27 02:20:00,
2013-01-26 21:25:00,25.2,19.6,30.37,NNW,346,0.0,0.0,79,0.00,,,0.00,Wunderground v.1.15,2013-01-27 02:25:00,
2013-01-26 21:30:00,25.0,19.7,30.37,NNW,346,0.0,0.0,80,0.00,,,0.00,Wunderground v.1.15,2013-01-27 02:30:00,
2013-01-26 21:40:00,24.7,19.4,30.38,NNW,346,0.0,0.0,80,0.00,,,0.00,Wunderground v.1.15,2013-01-27 02:40:00,
2013-01-26 21:45:00,24.6,19.3,30.38,NNW,346,0.0,0.0,80,0.00,,,0.00,Wunderground v.1.15,2013-01-27 02:45:00,
2013-01-26 21:50:00,24.5,19.2,30.38,NNW,346,0.0,0.0,80,0.00,,,0.00,Wunderground v.1.15,2013-01-27 02:50:00,
2013-01-26 21:55:00,24.5,19.2,30.39,NNW,346,0.0,0.0,80,0.00,,,0.00,Wunderground v.1.15,2013-01-27 02:55:00,
2013-01-26 22:00:00,24.5,19.5,30.39,NNW,346,0.0,0.0,81,0.00,,,0.01,Wunderground v.1.15,2013-01-27 03:00:00,
2013-01-26 22:10:00,24.5,19.5,30.39,NNW,346,0.0,0.0,81,0.00,,,0.01,Wunderground v.1.15,2013-01-27 03:10:00,
2013-01-26 22:15:00,24.5,19.8,30.40,NNW,346,0.0,0.0,82,0.00,,,0.01,Wunderground v.1.15,2013-01-27 03:15:00,
2013-01-26 22:20:00,24.6,19.9,30.40,NNW,346,0.0,0.0,82,0.00,,,0.01,Wunderground v.1.15,2013-01-27 03:20:00,
2013-01-26 22:25:00,24.5,20.1,30.40,NNW,346,0.0,0.0,83,0.00,,,0.01,Wunderground v.1.15,2013-01-27 03:25:00,
2013-01-26 22:30:00,24.2,19.8,30.40,NNW,346,0.0,0.0,83,0.00,,,0.01,Wunderground v.1.15,2013-01-27 03:30:00,
2013-01-26 22:39:00,24.3,20.2,30.41,NNW,346,1.0,1.0,84,0.00,,,0.01,Wunderground v.1.15,2013-01-27 03:39:00,
2013-01-26 22:45:00,24.2,20.1,30.41,NNW,346,1.0,1.0,84,0.00,,,0.01,Wunderground v.1.15,2013-01-27 03:45:00,
2013-01-26 22:50:00,24.1,20.0,30.41,NNW,346,1.0,1.0,84,0.00,,,0.01,Wunderground v.1.15,2013-01-27 03:50:00,
2013-01-26 22:55:00,24.3,20.2,30.41,NNW,346,1.0,1.0,84,0.00,,,0.01,Wunderground v.1.15,2013-01-27 03:55:00,
2013-01-26 23:00:00,24.4,20.3,30.42,NNW,346,1.0,1.0,84,0.00,,,0.01,Wunderground v.1.15,2013-01-27 04:00:00,
2013-01-26 23:05:00,24.3,20.2,30.42,NNW,346,0.0,1.0,84,0.00,,,0.01,Wunderground v.1.15,2013-01-27 04:05:00,
2013-01-26 23:10:00,24.1,20.0,30.42,NNW,346,0.0,1.0,84,0.00,,,0.01,Wunderground v.1.15,2013-01-27 04:10:00,
2013-01-26 23:20:00,24.3,20.2,30.43,NNW,346,1.0,1.0,84,0.00,,,0.01,Wunderground v.1.15,2013-01-27 04:20:00,
2013-01-26 23:25:00,24.4,20.3,30.42,NNW,346,1.0,1.0,84,0.00,,,0.01,Wunderground v.1.15,2013-01-27 04:25:00,
2013-01-26 23:30:00,24.4,20.3,30.42,NNW,346,1.0,1.0,84,0.00,,,0.01,Wunderground v.1.15,2013-01-27 04:30:00,
2013-01-26 23:35:00,24.5,20.4,30.42,NNW,346,0.0,1.0,84,0.00,,,0.01,Wunderground v.1.15,2013-01-27 04:35:00,
2013-01-26 23:40:00,24.5,20.4,30.43,NNW,346,0.0,0.0,84,0.00,,,0.01,Wunderground v.1.15,2013-01-27 04:40:00,
2013-01-26 23:45:00,24.3,20.2,30.43,NNW,346,0.0,0.0,84,0.00,,,0.01,Wunderground v.1.15,2013-01-27 04:45:00,
2013-01-26 23:55:00,23.8,19.4,30.43,NNW,346,0.0,0.0,83,0.00,,,0.01,Wunderground v.1.15,2013-01-27 04:55:00,